RAM667T LFPO-GMTT

Flight info

Callsign RAM667T
Flight time N/A
Altitude 37000
Route AGOPA DCT ARKIP DCT ARMAL DCT ARTAX DCT BEBIX DCT LMG DCT UVELI DCT OSMOB DCT VAVIX DCT NETUK N857 SVL N10 LINTO DCT NOLRO
Aircraft B738/M-SDE2E3FGHIRWXY/LB1

Departure

Time 2026-05-01 14:48
Airport Paris-Orly Airport (LFPO)

Arrival

Time N/A
Airport Tangier Ibn Battuta Airport (GMTT)
Time Latitude Longitude Altitude Speed Heading
2026-05-01 13:58 48.72696 2.36874 299 ft 0 kts 10°
2026-05-01 14:32 48.72690 2.36872 299 ft 2 kts 10°
2026-05-01 14:32 48.72670 2.36867 299 ft 3 kts 10°
2026-05-01 14:32 48.72650 2.36861 299 ft 3 kts 11°
2026-05-01 14:32 48.72631 2.36855 299 ft 3 kts 13°
2026-05-01 14:33 48.72611 2.36847 299 ft 3 kts 20°
2026-05-01 14:33 48.72593 2.36835 299 ft 3 kts 31°
2026-05-01 14:33 48.72577 2.36817 299 ft 3 kts 50°
2026-05-01 14:33 48.72568 2.36795 299 ft 1 kts 74°
2026-05-01 14:34 48.72567 2.36787 299 ft 0 kts 75°
2026-05-01 14:38 48.72567 2.36788 299 ft 0 kts 75°
2026-05-01 14:38 48.72569 2.36798 299 ft 3 kts 75°
2026-05-01 14:39 48.72577 2.36843 299 ft 6 kts 75°
2026-05-01 14:39 48.72590 2.36920 299 ft 9 kts 75°
2026-05-01 14:39 48.72605 2.37004 299 ft 9 kts 75°
2026-05-01 14:39 48.72621 2.37094 299 ft 10 kts 75°
2026-05-01 14:40 48.72637 2.37202 299 ft 10 kts 101°
2026-05-01 14:40 48.72579 2.37248 299 ft 10 kts 165°
2026-05-01 14:40 48.72518 2.37248 299 ft 10 kts 232°
2026-05-01 14:40 48.72499 2.37139 299 ft 12 kts 256°
2026-05-01 14:41 48.72476 2.37007 299 ft 12 kts 255°
2026-05-01 14:41 48.72454 2.36882 299 ft 13 kts 255°
2026-05-01 14:41 48.72428 2.36732 299 ft 15 kts 255°
2026-05-01 14:41 48.72402 2.36585 299 ft 3 kts 255°
2026-05-01 14:42 48.72396 2.36555 299 ft 4 kts 255°
2026-05-01 14:42 48.72391 2.36520 299 ft 5 kts 255°
2026-05-01 14:42 48.72379 2.36455 299 ft 8 kts 256°
2026-05-01 14:42 48.72362 2.36352 299 ft 12 kts 256°
2026-05-01 14:43 48.72340 2.36225 299 ft 12 kts 255°
2026-05-01 14:43 48.72319 2.36100 299 ft 12 kts 255°
2026-05-01 14:43 48.72304 2.36012 299 ft 4 kts 255°
2026-05-01 14:43 48.72293 2.35949 299 ft 8 kts 255°
2026-05-01 14:44 48.72278 2.35870 299 ft 10 kts 255°
2026-05-01 14:44 48.72241 2.35656 299 ft 9 kts 255°
2026-05-01 14:44 48.72210 2.35586 299 ft 9 kts 186°
2026-05-01 14:45 48.72140 2.35611 299 ft 11 kts 164°
2026-05-01 14:45 48.72029 2.35659 299 ft 11 kts 152°
2026-05-01 14:45 48.71978 2.35753 299 ft 13 kts 123°
2026-05-01 14:46 48.71940 2.35852 299 ft 9 kts 87°
2026-05-01 14:46 48.71947 2.35894 299 ft 0 kts 74°
2026-05-01 14:48 48.72058 2.36497 299 ft 83 kts 74°
2026-05-01 14:48 48.72265 2.37614 299 ft 135 kts 76°
2026-05-01 14:48 48.72887 2.40909 952 ft 177 kts 73°
2026-05-01 14:49 48.73578 2.44476 2340 ft 178 kts 73°
2026-05-01 14:49 48.74196 2.48380 3255 ft 213 kts 77°
2026-05-01 14:50 48.74367 2.51564 3774 ft 240 kts 90°
2026-05-01 14:50 48.73433 2.58524 5414 ft 265 kts 120°
2026-05-01 14:51 48.72210 2.60578 6165 ft 265 kts 148°
2026-05-01 14:51 48.68612 2.61558 7714 ft 269 kts 176°
2026-05-01 14:52 48.64862 2.61542 9172 ft 277 kts 198°
2026-05-01 14:52 48.63199 2.60037 9909 ft 282 kts 215°
2026-05-01 14:52 48.60382 2.55786 11209 ft 296 kts 225°
2026-05-01 14:53 48.58983 2.53362 11512 ft 316 kts 227°
2026-05-01 14:53 48.57526 2.50746 11785 ft 334 kts 227°
2026-05-01 14:53 48.55992 2.47979 12091 ft 351 kts 226°
2026-05-01 14:53 48.54407 2.45126 12643 ft 358 kts 227°
2026-05-01 14:54 48.52806 2.42222 13067 ft 362 kts 227°
2026-05-01 14:54 48.51186 2.39300 13197 ft 363 kts 226°
2026-05-01 14:54 48.49570 2.36377 13201 ft 362 kts 227°
2026-05-01 14:54 48.47968 2.33451 13208 ft 362 kts 227°
2026-05-01 14:55 48.46356 2.30532 13218 ft 363 kts 227°
2026-05-01 14:55 48.44720 2.27596 13726 ft 367 kts 227°
2026-05-01 14:55 48.43086 2.24645 14521 ft 368 kts 227°
2026-05-01 14:55 48.41439 2.21680 15238 ft 371 kts 227°
2026-05-01 14:56 48.39772 2.18692 15901 ft 375 kts 227°
2026-05-01 14:56 48.38101 2.15703 16555 ft 379 kts 226°
2026-05-01 14:56 48.36378 2.12628 17201 ft 383 kts 226°
2026-05-01 14:56 48.34657 2.09555 17828 ft 386 kts 226°
2026-05-01 14:57 48.32918 2.06455 18428 ft 390 kts 226°
2026-05-01 14:57 48.28566 2.01897 19613 ft 383 kts 194°
2026-05-01 14:57 48.25955 2.01161 20208 ft 382 kts 183°
2026-05-01 14:58 48.23295 2.00865 20787 ft 384 kts 181°
2026-05-01 14:58 48.20618 2.00703 21339 ft 386 kts 179°
2026-05-01 14:58 48.17923 2.00700 21890 ft 388 kts 177°
2026-05-01 14:58 48.15217 2.00775 22418 ft 390 kts 176°
2026-05-01 14:59 48.12488 2.00842 22939 ft 393 kts 178°
2026-05-01 14:59 48.09745 2.00594 23434 ft 397 kts 184°
2026-05-01 14:59 48.07012 1.99841 23909 ft 402 kts 191°
2026-05-01 14:59 48.04298 1.98712 24377 ft 406 kts 193°
2026-05-01 15:00 47.98852 1.96282 25257 ft 411 kts 193°
2026-05-01 15:00 47.96104 1.95048 25665 ft 414 kts 193°
2026-05-01 15:00 47.93379 1.93828 26081 ft 416 kts 193°
2026-05-01 15:01 47.90601 1.92585 26472 ft 418 kts 193°
2026-05-01 15:01 47.87804 1.91335 26848 ft 421 kts 193°
2026-05-01 15:01 47.84995 1.90082 27203 ft 423 kts 193°
2026-05-01 15:01 47.82165 1.88821 27581 ft 425 kts 193°
2026-05-01 15:02 47.78804 1.87326 27995 ft 427 kts 193°
2026-05-01 15:03 47.75949 1.86057 28316 ft 430 kts 193°
2026-05-01 15:03 47.73077 1.84782 28638 ft 432 kts 193°
2026-05-01 15:03 47.70193 1.83473 28936 ft 435 kts 193°
2026-05-01 15:03 47.67301 1.82140 29252 ft 437 kts 193°
2026-05-01 15:04 47.64390 1.80811 29554 ft 438 kts 193°
2026-05-01 15:04 47.61473 1.79489 29908 ft 438 kts 193°
2026-05-01 15:04 47.58563 1.78179 30333 ft 437 kts 193°
2026-05-01 15:04 47.55652 1.76874 30655 ft 438 kts 193°
2026-05-01 15:05 47.52738 1.75573 30973 ft 438 kts 194°
2026-05-01 15:05 47.49809 1.74269 31304 ft 439 kts 194°
2026-05-01 15:05 47.46890 1.72973 31645 ft 438 kts 194°
2026-05-01 15:05 47.43963 1.71678 31946 ft 439 kts 194°
2026-05-01 15:06 47.41036 1.70384 32268 ft 439 kts 195°
2026-05-01 15:06 47.38107 1.69091 32578 ft 440 kts 195°
2026-05-01 15:06 47.35177 1.67801 32893 ft 440 kts 195°
2026-05-01 15:06 47.32247 1.66512 33222 ft 439 kts 195°
2026-05-01 15:07 47.29320 1.65226 33517 ft 440 kts 195°
2026-05-01 15:07 47.26388 1.63939 33822 ft 439 kts 196°
2026-05-01 15:07 47.23451 1.62652 34099 ft 440 kts 196°
2026-05-01 15:07 47.20516 1.61368 34387 ft 440 kts 196°
2026-05-01 15:08 47.17588 1.60088 34716 ft 439 kts 196°
2026-05-01 15:08 47.14699 1.58826 35003 ft 439 kts 197°
2026-05-01 15:08 47.11739 1.57534 35292 ft 438 kts 197°
2026-05-01 15:08 47.08853 1.56277 35566 ft 438 kts 197°
2026-05-01 15:09 47.05893 1.54988 35837 ft 438 kts 197°
2026-05-01 15:09 47.03013 1.53735 36095 ft 438 kts 197°
2026-05-01 15:09 47.00093 1.52467 36351 ft 438 kts 197°
2026-05-01 15:09 46.97173 1.51199 36647 ft 436 kts 197°
2026-05-01 15:10 46.94263 1.49937 36876 ft 437 kts 197°
2026-05-01 15:10 46.88426 1.47407 37214 ft 440 kts 198°
2026-05-01 15:10 46.85495 1.46124 37221 ft 440 kts 198°
2026-05-01 15:11 46.76722 1.42318 37228 ft 436 kts 198°
2026-05-01 15:12 46.70916 1.39813 37228 ft 436 kts 198°
2026-05-01 15:12 46.63168 1.36480 37227 ft 436 kts 198°
2026-05-01 15:14 46.48625 1.30243 37225 ft 436 kts 198°
2026-05-01 15:14 46.39903 1.26517 37224 ft 436 kts 198°
2026-05-01 15:15 46.28283 1.21491 37225 ft 436 kts 199°
2026-05-01 15:16 46.16669 1.16472 37227 ft 435 kts 199°
2026-05-01 15:18 46.01980 1.11000 37228 ft 436 kts 197°
2026-05-01 15:19 45.90367 1.06231 37229 ft 435 kts 198°
2026-05-01 15:19 45.81844 1.01924 37229 ft 432 kts 210°
2026-05-01 15:20 45.74624 0.94271 37227 ft 431 kts 221°
2026-05-01 15:21 45.70017 0.88774 37224 ft 431 kts 220°
2026-05-01 15:21 45.65423 0.83307 37218 ft 429 kts 220°
2026-05-01 15:22 45.58527 0.75126 37210 ft 430 kts 220°
2026-05-01 15:22 45.53935 0.69673 37208 ft 429 kts 220°
2026-05-01 15:23 45.49352 0.64212 37206 ft 429 kts 220°
2026-05-01 15:23 45.44760 0.58769 37205 ft 429 kts 220°
2026-05-01 15:24 45.40160 0.53337 37204 ft 429 kts 220°
2026-05-01 15:24 45.35557 0.47916 37202 ft 429 kts 220°
2026-05-01 15:25 45.30952 0.42508 37201 ft 430 kts 220°
2026-05-01 15:25 45.26353 0.37090 37201 ft 430 kts 220°
2026-05-01 15:26 45.21746 0.31690 37200 ft 430 kts 220°
2026-05-01 15:26 45.17129 0.26310 37198 ft 430 kts 220°
2026-05-01 15:27 45.12539 0.20979 37197 ft 430 kts 220°
2026-05-01 15:28 45.05596 0.12935 37191 ft 430 kts 220°
2026-05-01 15:28 45.00965 0.07582 37191 ft 430 kts 220°
2026-05-01 15:29 44.94016 -0.00424 37189 ft 429 kts 220°
2026-05-01 15:30 44.84693 -0.11195 37186 ft 436 kts 221°
2026-05-01 15:31 44.70598 -0.27314 37178 ft 435 kts 220°
2026-05-01 15:32 44.61027 -0.37745 37176 ft 436 kts 216°
2026-05-01 15:34 44.45958 -0.52079 37172 ft 436 kts 216°